TimeCST,TemperatureF,Dew PointF,Humidity,Sea Level PressureIn,VisibilityMPH,Wind Direction,Wind SpeedMPH,Gust SpeedMPH,PrecipitationIn,Events,Conditions,WindDirDegrees,DateUTC
12:56 AM,54.0,52.0,93,30.24,7.0,South,3.5,-,N/A,,Clear,180,2013-01-24 06:56:00
1:49 AM,53.6,51.8,94,30.23,1.8,Calm,Calm,-,N/A,,Partly Cloudy,0,2013-01-24 07:49:00
1:56 AM,52.0,51.1,97,30.23,1.0,Calm,Calm,-,N/A,,Mist,0,2013-01-24 07:56:00
2:01 AM,51.8,51.8,100,30.23,0.8,Calm,Calm,-,N/A,,Mist,0,2013-01-24 08:01:00
2:15 AM,51.8,51.8,100,30.23,1.2,Calm,Calm,-,N/A,,Partly Cloudy,0,2013-01-24 08:15:00
2:20 AM,53.6,51.8,94,30.23,3.0,Calm,Calm,-,0.01,,Partly Cloudy,0,2013-01-24 08:20:00
2:38 AM,53.6,51.8,94,30.23,1.5,Calm,Calm,-,0.01,,Clear,0,2013-01-24 08:38:00
2:56 AM,53.1,51.1,93,30.23,0.8,Calm,Calm,-,0.01,,Mist,0,2013-01-24 08:56:00
3:15 AM,53.6,51.8,94,30.23,1.2,Calm,Calm,-,N/A,,Scattered Clouds,0,2013-01-24 09:15:00
3:26 AM,53.6,51.8,94,30.23,2.0,Calm,Calm,-,N/A,,Mostly Cloudy,0,2013-01-24 09:26:00
3:36 AM,53.6,53.6,100,30.23,4.0,Calm,Calm,-,N/A,,Mostly Cloudy,0,2013-01-24 09:36:00
3:56 AM,54.0,52.0,93,30.23,5.0,Calm,Calm,-,N/A,,Overcast,0,2013-01-24 09:56:00
4:38 AM,55.4,53.6,94,30.24,1.8,Calm,Calm,-,N/A,,Mostly Cloudy,0,2013-01-24 10:38:00
4:56 AM,54.0,52.0,93,30.25,1.5,Calm,Calm,-,N/A,,Overcast,0,2013-01-24 10:56:00
5:08 AM,53.6,53.6,100,30.25,2.0,Calm,Calm,-,N/A,,Overcast,0,2013-01-24 11:08:00
5:23 AM,53.6,53.6,100,30.24,1.2,Calm,Calm,-,N/A,,Mostly Cloudy,0,2013-01-24 11:23:00
5:36 AM,53.6,53.6,100,30.25,1.0,Calm,Calm,-,N/A,,Mostly Cloudy,0,2013-01-24 11:36:00
5:43 AM,55.4,53.6,94,30.25,2.0,Calm,Calm,-,N/A,,Mostly Cloudy,0,2013-01-24 11:43:00
5:51 AM,55.4,53.6,94,30.25,4.0,Calm,Calm,-,N/A,,Overcast,0,2013-01-24 11:51:00
5:56 AM,55.9,55.0,97,30.26,6.0,Calm,Calm,-,N/A,,Overcast,0,2013-01-24 11:56:00
6:40 AM,57.2,55.4,94,30.26,5.0,Calm,Calm,-,N/A,,Overcast,0,2013-01-24 12:40:00
6:56 AM,57.0,55.9,96,30.26,4.0,South,3.5,-,N/A,,Overcast,190,2013-01-24 12:56:00
7:19 AM,57.2,55.4,94,30.26,1.8,SSW,3.5,-,N/A,,Overcast,200,2013-01-24 13:19:00
7:31 AM,57.2,57.2,100,30.26,0.5,Calm,Calm,-,N/A,Fog,Fog,0,2013-01-24 13:31:00
7:56 AM,57.9,57.0,97,30.26,0.2,Variable,3.5,-,N/A,Fog,Fog,0,2013-01-24 13:56:00
8:56 AM,59.0,57.9,96,30.28,0.5,Calm,Calm,-,N/A,Fog,Fog,0,2013-01-24 14:56:00
9:13 AM,60.8,59.0,94,30.28,1.2,SSW,3.5,-,N/A,,Overcast,210,2013-01-24 15:13:00
9:24 AM,60.8,59.0,94,30.28,3.0,Variable,3.5,-,N/A,,Overcast,0,2013-01-24 15:24:00
9:56 AM,61.0,59.0,93,30.29,9.0,Variable,3.5,-,N/A,,Overcast,0,2013-01-24 15:56:00
10:31 AM,62.6,59.0,88,30.29,10.0,SSW,3.5,-,N/A,,Overcast,210,2013-01-24 16:31:00
10:56 AM,64.0,59.0,84,30.29,10.0,Variable,5.8,-,N/A,,Overcast,0,2013-01-24 16:56:00
11:03 AM,62.6,59.0,88,30.28,9.0,Variable,4.6,-,N/A,,Overcast,0,2013-01-24 17:03:00
11:53 AM,64.4,60.8,88,30.26,10.0,Variable,5.8,-,N/A,,Overcast,0,2013-01-24 17:53:00
11:56 AM,64.9,60.1,84,30.26,10.0,SW,3.5,-,N/A,,Overcast,230,2013-01-24 17:56:00
12:56 PM,68.0,60.1,76,30.22,10.0,Variable,4.6,-,N/A,,Overcast,0,2013-01-24 18:56:00
1:48 PM,68.0,60.8,78,30.19,10.0,SW,8.1,-,N/A,,Overcast,220,2013-01-24 19:48:00
1:56 PM,68.0,60.1,76,30.18,10.0,Variable,5.8,-,N/A,,Overcast,0,2013-01-24 19:56:00
2:56 PM,69.1,60.1,73,30.18,10.0,Variable,6.9,-,N/A,,Overcast,0,2013-01-24 20:56:00
3:29 PM,69.8,60.8,73,30.17,10.0,Variable,5.8,-,N/A,,Overcast,0,2013-01-24 21:29:00
3:56 PM,69.1,61.0,75,30.16,10.0,Variable,4.6,-,N/A,,Overcast,0,2013-01-24 21:56:00
4:56 PM,68.0,61.0,78,30.17,10.0,Calm,Calm,-,N/A,,Overcast,0,2013-01-24 22:56:00
5:56 PM,63.0,61.0,93,30.17,7.0,Calm,Calm,-,N/A,,Scattered Clouds,0,2013-01-24 23:56:00
6:56 PM,60.1,57.9,93,30.17,2.5,Calm,Calm,-,N/A,,Partly Cloudy,0,2013-01-25 00:56:00
7:07 PM,59.0,57.2,94,30.17,4.0,South,3.5,-,N/A,,Partly Cloudy,170,2013-01-25 01:07:00
7:56 PM,62.1,59.0,90,30.17,10.0,South,4.6,-,N/A,,Clear,170,2013-01-25 01:56:00
8:56 PM,63.0,60.1,90,30.16,10.0,South,4.6,-,N/A,,Mostly Cloudy,180,2013-01-25 02:56:00
9:10 PM,62.6,59.0,88,30.16,10.0,South,9.2,-,N/A,,Scattered Clouds,180,2013-01-25 03:10:00
9:56 PM,62.1,59.0,90,30.16,10.0,Variable,5.8,-,N/A,,Clear,0,2013-01-25 03:56:00
10:56 PM,62.1,57.9,86,30.16,10.0,South,9.2,-,N/A,,Partly Cloudy,180,2013-01-25 04:56:00
11:56 PM,62.1,57.9,86,30.15,10.0,South,9.2,-,N/A,,Partly Cloudy,190,2013-01-25 05:56:00